GMT,Max TemperatureF,Mean TemperatureF,Min TemperatureF,Max Dew PointF,MeanDew PointF,Min DewpointF,Max Humidity, Mean Humidity, Min Humidity, Max Sea Level PressureIn, Mean Sea Level PressureIn, Min Sea Level PressureIn, Max VisibilityMiles, Mean VisibilityMiles, Min VisibilityMiles, Max Wind SpeedMPH, Mean Wind SpeedMPH, Max Gust SpeedMPH,PrecipitationIn, CloudCover, Events, WindDirDegrees
2011-2-1,51,46,41,48,44,41,100,92,76,30.24,30.18,30.09,6,6,4,20,10,,0.00,4,Fog,210
2011-2-2,51,46,41,50,43,36,94,83,71,30.12,30.00,29.89,6,6,4,37,17,40,0.00,5,Rain,216
2011-2-3,51,45,39,48,41,36,100,87,76,30.15,29.94,29.71,6,5,2,37,17,56,0.00,5,Rain,207
2011-2-4,55,50,46,52,49,45,100,88,82,29.77,29.69,29.65,6,5,2,40,29,59,0.00,6,Rain,223
2011-2-5,53,48,44,52,47,45,100,99,93,29.86,29.78,29.68,6,4,2,33,12,40,0.00,6,Rain,204
2011-2-6,53,48,44,52,46,43,100,95,87,29.86,29.76,29.59,6,4,1,32,8,45,0.00,6,Fog-Rain,149
2011-2-7,51,44,37,50,41,36,100,87,62,30.09,29.76,29.30,6,6,6,38,18,56,0.00,4,Rain,225
2011-2-8,51,42,33,48,40,32,100,89,76,30.09,29.92,29.71,6,6,6,21,10,,0.00,4,Rain,124
2011-2-9,50,46,42,48,46,41,100,94,87,29.86,29.75,29.71,6,6,2,16,9,,0.00,6,Rain,167
2011-2-10,48,42,35,45,41,36,100,95,87,29.89,29.80,29.65,6,4,0,13,5,,0.00,5,Fog,108
2011-2-11,53,47,39,50,44,37,100,89,71,29.86,29.67,29.53,6,6,6,14,10,,0.00,5,Rain,181
2011-2-12,48,40,33,45,39,32,100,87,76,29.86,29.64,29.30,6,6,5,25,10,37,0.00,5,Rain,149
2011-2-13,48,40,33,43,39,34,100,94,71,29.39,29.32,29.30,6,6,5,15,4,,0.00,4,Fog-Rain,224
2011-2-14,44,40,35,37,34,30,100,82,57,29.44,29.35,29.12,6,6,6,14,11,25,0.00,4,Rain,196
2011-2-15,44,42,39,43,40,36,93,89,81,29.12,28.93,28.82,6,6,2,22,13,,0.00,6,Rain,132
2011-2-16,48,40,33,41,37,32,93,87,76,29.39,29.17,29.03,6,6,6,13,8,,0.00,5,Rain,72
2011-2-17,44,38,33,43,38,34,100,96,87,29.71,29.60,29.42,6,4,0,8,5,,0.00,5,Fog,62
2011-2-18,48,44,39,46,43,37,100,94,82,29.71,29.55,29.42,6,6,2,22,10,,0.00,4,Rain,124
2011-2-19,53,45,37,46,43,37,100,91,76,29.74,29.67,29.53,6,6,6,15,8,,0.00,4,,126
2011-2-20,51,48,44,48,46,45,100,90,82,29.71,29.66,29.62,6,6,6,21,14,,0.00,6,Rain,134
2011-2-21,53,48,42,46,44,41,100,92,72,29.86,29.76,29.68,6,6,6,12,6,,0.00,5,Rain,144
2011-2-22,51,48,44,52,48,43,100,99,93,29.86,29.84,29.83,6,5,1,10,8,,0.00,7,Rain,145
2011-2-23,55,52,48,52,49,45,100,91,77,29.95,29.85,29.77,6,6,2,24,10,,0.00,6,Rain,179
2011-2-24,59,52,44,54,47,41,93,85,72,30.04,29.99,29.95,6,6,6,20,10,,0.00,6,,152
2011-2-25,55,52,46,52,47,45,100,85,72,30.06,29.99,29.92,6,6,4,21,12,,0.00,6,Rain,192
2011-2-26,50,46,41,45,40,37,93,85,66,30.24,30.10,29.95,6,6,6,21,10,28,0.00,3,Rain,257
2011-2-27,50,42,35,43,39,34,93,82,62,30.51,30.34,30.21,6,6,3,22,10,,0.00,3,Rain,295
2011-2-28,50,40,30,43,34,30,100,82,50,30.63,30.56,30.51,6,5,0,6,3,,0.00,4,Fog,339